GW1941 Weather Reports


Display with metric or nautical units.
time (UTC)temp
F
wind
direction
speed
MPH
gust
MPH
rain 1hr
in
rain 24hr
in
rain mn
in
humidity
%
barometer
mb
20260505003824 61 272 4.0 6.0 0.00 0.00 0.00 71 1012.4
20260505003321 61 96 6.0 8.0 0.00 0.00 0.00 71 1012.2
20260505002817 61 76 5.0 7.0 0.00 0.00 0.00 70 1012.4
20260505002314 61 83 6.0 7.0 0.00 0.00 0.00 70 1012.0
20260505001812 62 98 4.0 5.0 0.00 0.00 0.00 70 1012.2
20260505001309 62 119 3.0 5.0 0.00 0.00 0.00 69 1012.3
20260505000806 61 163 5.0 7.0 0.00 0.00 0.00 70 1012.3
20260505000304 61 138 3.0 5.0 0.00 0.00 0.00 70 1012.2
20260504235800 61 58 4.0 5.0 0.00 0.00 0.00 71 1012.3
20260504235256 61 191 5.0 7.0 0.00 0.00 0.00 71 1012.3
20260504234754 61 120 4.0 6.0 0.00 0.00 0.00 71 1012.1
20260504234252 61 101 4.0 6.0 0.00 0.00 0.00 71 1012.0
20260504233747 61 222 2.0 2.0 0.00 0.00 0.00 71 1012.2
20260504233243 61 140 4.0 5.0 0.00 0.00 0.00 72 1012.2
20260504232740 61 110 6.0 7.0 0.00 0.00 0.00 72 1012.1
20260504232237 61 90 6.0 7.0 0.00 0.00 0.00 72 1012.1
20260504231734 61 199 4.0 6.0 0.00 0.00 0.00 72 1012.0
20260504231231 61 142 6.0 6.0 0.00 0.00 0.00 72 1012.1
20260504230726 61 139 3.0 5.0 0.00 0.00 0.00 72 1012.1
20260504230225 61 104 4.0 5.0 0.00 0.00 0.00 72 1012.2
20260504225724 61 46 3.0 5.0 0.00 0.00 0.00 72 1012.4
20260504225220 61 165 6.0 8.0 0.00 0.00 0.00 72 1012.1
20260504224717 61 119 3.0 3.0 0.00 0.00 0.00 73 1012.1
20260504224214 61 215 2.0 2.0 0.00 0.00 0.00 72 1012.1
20260504223710 61 212 2.0 2.0 0.00 0.00 0.00 73 1012.0
20260504223206 61 237 2.0 3.0 0.00 0.00 0.00 73 1012.0
20260504222703 62 261 0.0 1.0 0.00 0.00 0.00 72 1012.1
20260504222200 62 30 4.0 5.0 0.00 0.00 0.00 71 1012.3
20260504221657 62 239 3.0 5.0 0.00 0.00 0.00 71 1012.0
20260504221155 62 238 3.0 3.0 0.00 0.00 0.00 70 1012.1
20260504220651 62 213 4.0 5.0 0.00 0.00 0.00 70 1012.1
20260504220149 62 206 3.0 5.0 0.00 0.00 0.00 70 1012.0
20260504215644 62 153 5.0 7.0 0.00 0.00 0.00 69 1012.1
20260504215142 63 101 6.0 10.0 0.00 0.00 0.00 68 1011.9
20260504214638 63 53 3.0 3.0 0.00 0.00 0.00 68 1012.1
20260504214134 63 201 3.0 5.0 0.00 0.00 0.00 68 1012.0
20260504213631 63 262 4.0 5.0 0.00 0.00 0.00 68 1012.1
20260504213128 63 65 4.0 5.0 0.00 0.00 0.00 69 1011.9
20260504212624 63 228 3.0 5.0 0.00 0.00 0.00 69 1012.1
20260504212121 63 60 6.0 10.0 0.00 0.00 0.00 68 1012.1
20260504211619 63 87 4.0 6.0 0.00 0.00 0.00 69 1012.0
20260504211115 63 94 5.0 6.0 0.00 0.00 0.00 68 1012.0
20260504210613 63 129 10.0 14.0 0.00 0.00 0.00 67 1011.9
20260504210109 63 153 6.0 9.0 0.00 0.00 0.00 66 1012.0
20260504205606 64 118 6.0 7.0 0.00 0.00 0.00 66 1011.9
20260504205104 64 93 7.0 9.0 0.00 0.00 0.00 65 1012.0
20260504204602 65 114 7.0 8.0 0.00 0.00 0.00 63 1012.0
20260504204100 65 323 3.0 6.0 0.00 0.00 0.00 63 1012.2
20260504203559 64 96 6.0 9.0 0.00 0.00 0.00 63 1012.1
20260504203056 65 46 7.0 9.0 0.00 0.00 0.00 63 1012.3
20260504202551 65 146 5.0 6.0 0.00 0.00 0.00 63 1012.1
20260504202048 64 63 7.0 9.0 0.00 0.00 0.00 64 1012.1
20260504201545 65 120 7.0 9.0 0.00 0.00 0.00 63 1012.3
20260504201043 65 131 4.0 6.0 0.00 0.00 0.00 63 1012.1
20260504200539 65 72 6.0 8.0 0.00 0.00 0.00 62 1012.5
20260504200036 66 122 6.0 9.0 0.00 0.00 0.00 62 1012.3
20260504195532 65 40 2.0 3.0 0.00 0.00 0.00 63 1012.4
20260504195029 66 101 6.0 8.0 0.00 0.00 0.00 62 1012.4
20260504194525 65 96 7.0 10.0 0.00 0.00 0.00 61 1012.4
20260504194020 65 114 3.0 5.0 0.00 0.00 0.00 63 1012.3
20260504193518 65 136 7.0 8.0 0.00 0.00 0.00 63 1012.4
20260504193017 66 55 2.0 5.0 0.00 0.00 0.00 64 1012.6
20260504192514 66 176 1.0 2.0 0.00 0.00 0.00 62 1012.5
20260504192012 65 292 3.0 3.0 0.00 0.00 0.00 64 1012.7
20260504191510 65 143 5.0 8.0 0.00 0.00 0.00 63 1012.6
20260504191005 66 152 5.0 8.0 0.00 0.00 0.00 61 1012.7
20260504190501 66 178 5.0 7.0 0.00 0.00 0.00 61 1012.7
20260504185958 67 135 3.0 5.0 0.00 0.00 0.00 61 1012.9
20260504185455 67 154 4.0 6.0 0.00 0.00 0.00 60 1012.9
20260504184952 67 40 5.0 6.0 0.00 0.00 0.00 61 1012.9
20260504184447 67 183 4.0 6.0 0.00 0.00 0.00 60 1013.1
20260504183943 67 245 4.0 6.0 0.00 0.00 0.00 59 1012.9
20260504183440 66 191 4.0 7.0 0.00 0.00 0.00 61 1013.0
20260504182938 67 105 3.0 9.0 0.00 0.00 0.00 61 1013.1
20260504182435 66 136 5.0 6.0 0.00 0.00 0.00 62 1013.2
20260504181932 66 161 7.0 10.0 0.00 0.00 0.00 60 1013.3
20260504181429 67 99 5.0 10.0 0.00 0.00 0.00 59 1013.2
20260504180928 66 341 4.0 7.0 0.00 0.00 0.00 60 1013.4
20260504180426 66 194 4.0 6.0 0.00 0.00 0.00 59 1013.3
20260504175924 68 145 3.0 5.0 0.00 0.00 0.00 59 1013.5
20260504175421 68 151 2.0 5.0 0.00 0.00 0.00 61 1013.5
20260504174918 68 185 3.0 3.0 0.00 0.00 0.00 59 1013.7
20260504174416 68 72 4.0 6.0 0.00 0.00 0.00 60 1013.4
20260504173913 68 159 2.0 5.0 0.00 0.00 0.00 59 1013.5
20260504173409 67 60 5.0 8.0 0.00 0.00 0.00 58 1013.7
20260504172907 67 141 3.0 3.0 0.00 0.00 0.00 61 1013.9
20260504172403 67 245 5.0 7.0 0.00 0.00 0.00 61 1014.0
20260504171859 68 119 5.0 7.0 0.00 0.00 0.00 58 1013.6
20260504171356 68 37 5.0 6.0 0.00 0.00 0.00 53 1013.9
20260504170853 68 32 4.0 6.0 0.00 0.00 0.00 58 1013.7
20260504170350 67 191 4.0 5.0 0.00 0.00 0.00 58 1013.9
20260504160309 67 165 5.0 6.0 0.00 0.00 0.00 60 1014.5
20260504150734 66 211 5.0 8.0 0.00 0.00 0.00 47 1015.1
20260504150231 66 131 5.0 7.0 0.00 0.00 0.00 47 1014.8
20260504141200 64 128 6.0 7.0 0.00 0.00 0.00 46 1015.4
20260504140657 64 143 6.0 7.0 0.00 0.00 0.00 46 1015.4
20260504140152 64 125 8.0 11.0 0.00 0.00 0.00 45 1015.3
20260504130620 61 109 5.0 6.0 0.00 0.00 0.00 53 1015.7
20260504130117 61 227 3.0 5.0 0.00 0.00 0.00 54 1015.8
20260504110509 53 234 2.0 2.0 0.00 0.00 0.00 76 1016.7
20260504100431 49 211 1.0 2.0 0.00 0.00 0.00 79 1016.7
20260504081824 50 234 2.0 2.0 0.00 0.00 0.00 75 1016.7
20260504081320 50 286 1.0 2.0 0.00 0.00 0.00 75 1016.8
20260504080816 50 231 2.0 2.0 0.00 0.00 0.00 74 1016.8
20260504080314 50 226 2.0 2.0 0.00 0.00 0.00 74 1016.4
20260504070240 49 222 2.0 2.0 0.00 0.00 0.00 72 1016.3
20260504060201 50 155 3.0 3.0 0.00 0.00 0.00 69 1016.0
20260504050629 51 223 3.0 3.0 0.00 0.00 0.00 66 1015.9
20260504050126 51 237 2.0 2.0 0.00 0.00 0.00 65 1015.9
20260504045623 51 199 3.0 3.0 0.00 0.00 0.00 65 1015.6
20260504045118 51 251 3.0 3.0 0.00 0.00 0.00 65 1015.8
20260504044616 51 215 2.0 3.0 0.00 0.00 0.00 66 1015.7
20260504044113 51 301 2.0 2.0 0.00 0.00 0.00 65 1015.6
20260504043610 51 232 2.0 2.0 0.00 0.00 0.00 66 1016.0
20260504043107 50 172 3.0 3.0 0.00 0.00 0.00 66 1015.9
20260504042604 50 235 2.0 2.0 0.00 0.00 0.00 67 1015.9
20260504042101 50 207 3.0 3.0 0.00 0.00 0.00 65 1015.7
20260504041556 50 238 2.0 2.0 0.00 0.00 0.00 64 1015.9
20260504041053 50 225 2.0 2.0 0.00 0.00 0.00 64 1015.8
20260504040551 50 331 0.0 0.0 0.00 0.00 0.00 64 1015.8
20260504040047 50 232 1.0 2.0 0.00 0.00 0.00 63 1015.7
20260504035544 50 242 3.0 3.0 0.00 0.00 0.00 62 1015.5
20260504035040 50 250 1.0 2.0 0.00 0.00 0.00 61 1015.7
20260504034538 50 243 1.0 1.0 0.00 0.00 0.00 61 1015.7
20260504034035 50 240 1.0 1.0 0.00 0.00 0.00 60 1015.4
20260504033533 50 240 2.0 2.0 0.00 0.00 0.00 59 1015.3
20260504033030 49 241 1.0 2.0 0.00 0.00 0.00 60 1015.4
20260504032527 49 256 0.0 0.0 0.00 0.00 0.00 60 1015.3
20260504032024 49 246 0.0 0.0 0.00 0.00 0.00 59 1015.3
20260504031521 49 252 0.0 0.0 0.00 0.00 0.00 58 1015.4
20260504031017 49 251 0.0 0.0 0.00 0.00 0.00 58 1015.6
20260504030514 49 253 0.0 0.0 0.00 0.00 0.00 58 1015.4
20260504030010 49 287 0.0 0.0 0.00 0.00 0.00 57 1015.3
20260504025507 48 252 0.0 0.0 0.00 0.00 0.00 58 1015.5
20260504025004 48 252 0.0 0.0 0.00 0.00 0.00 56 1015.5
20260504024502 48 264 0.0 0.0 0.00 0.00 0.00 57 1015.3
20260504023959 48 255 0.0 0.0 0.00 0.00 0.00 58 1015.4
20260504023455 48 261 0.0 0.0 0.00 0.00 0.00 59 1015.5
20260504022950 48 255 0.0 0.0 0.00 0.00 0.00 57 1015.5
20260504022447 48 252 0.0 0.0 0.00 0.00 0.00 59 1015.2
20260504021943 48 256 0.0 0.0 0.00 0.00 0.00 60 1015.3
20260504021441 48 257 0.0 0.0 0.00 0.00 0.00 56 1015.2
20260504020938 48 261 0.0 0.0 0.00 0.00 0.00 59 1015.3
20260504020434 48 261 0.0 0.0 0.00 0.00 0.00 58 1015.3
20260504015931 49 261 0.0 0.0 0.00 0.00 0.00 60 1015.3
20260504015427 49 257 1.0 1.0 0.00 0.00 0.00 58 1015.4
20260504014923 49 254 0.0 0.0 0.00 0.00 0.00 56 1015.5
20260504014419 49 258 0.0 0.0 0.00 0.00 0.00 56 1015.2
20260504013916 49 258 0.0 0.0 0.00 0.00 0.00 55 1015.1
20260504013415 49 260 0.0 0.0 0.00 0.00 0.00 56 1015.2
20260504012910 49 254 0.0 0.0 0.00 0.00 0.00 56 1015.0
20260504012409 49 257 0.0 0.0 0.00 0.00 0.00 56 1015.0
20260504011906 49 254 0.0 0.0 0.00 0.00 0.00 57 1015.1
20260504011403 49 252 0.0 0.0 0.00 0.00 0.00 57 1015.0
20260504010858 49 258 0.0 0.0 0.00 0.00 0.00 59 1015.1
20260504010354 49 256 0.0 0.0 0.00 0.00 0.00 58 1014.7
20260504005851 49 256 0.0 0.0 0.00 0.00 0.00 57 1014.6
20260504005348 50 260 0.0 0.0 0.00 0.00 0.00 56 1014.5
20260504004845 50 260 0.0 0.0 0.00 0.00 0.00 57 1014.5
20260504004343 50 261 0.0 0.0 0.00 0.00 0.00 56 1014.3